Time,TemperatureF,DewpointF,PressureIn,WindDirection,WindDirectionDegrees,WindSpeedMPH,WindSpeedGustMPH,Humidity,HourlyPrecipIn,Conditions,Clouds,dailyrainin,SoftwareType,DateUTC
2013-07-24 06:19:00,54.3,48.6,29.99,SW,225,0.0,0.0,81,0.00,,,0.00,WUHU21623XXSP,2013-07-24 10:19:00,
2013-07-24 06:20:00,54.3,48.6,29.99,SW,225,0.0,0.0,81,0.00,,,0.00,WUHU21623XXSP,2013-07-24 10:20:00,
2013-07-24 06:25:00,54.3,48.6,29.99,SW,225,0.0,0.0,81,0.00,,,0.00,WUHU21623XXSP,2013-07-24 10:25:00,
2013-07-24 06:30:00,54.1,48.5,29.99,SW,225,0.0,0.0,81,0.00,,,0.00,WUHU21623XXSP,2013-07-24 10:30:00,
2013-07-24 06:35:00,54.1,48.5,29.99,SW,225,0.0,0.0,81,0.00,,,0.00,WUHU21623XXSP,2013-07-24 10:35:00,
2013-07-24 06:40:00,53.8,48.1,29.99,SW,225,0.0,0.0,81,0.00,,,0.00,WUHU21623XXSP,2013-07-24 10:40:00,
2013-07-24 06:45:00,53.8,48.1,30.00,SW,225,0.0,0.0,81,0.00,,,0.00,WUHU21623XXSP,2013-07-24 10:45:00,
2013-07-24 06:50:00,53.8,48.1,30.01,SW,225,0.0,0.0,81,0.00,,,0.00,WUHU21623XXSP,2013-07-24 10:50:00,
2013-07-24 06:55:00,53.8,48.1,30.01,SW,225,0.0,0.0,81,0.00,,,0.00,WUHU21623XXSP,2013-07-24 10:55:00,
2013-07-24 07:00:00,53.8,48.1,30.01,SW,225,0.0,0.0,81,0.00,,,0.00,WUHU21623XXSP,2013-07-24 11:00:00,
2013-07-24 07:05:00,53.8,48.1,30.01,SW,225,0.0,0.0,81,0.00,,,0.00,WUHU21623XXSP,2013-07-24 11:05:00,
2013-07-24 07:26:00,53.4,48.1,30.01,SW,225,0.0,0.0,82,0.00,,,0.00,WUHU21623XXSP,2013-07-24 11:26:00,
2013-07-24 07:31:00,53.4,48.1,30.01,WSW,247,0.0,0.0,82,0.00,,,0.00,WUHU21623XXSP,2013-07-24 11:31:00,
2013-07-24 07:36:00,53.8,48.4,30.01,WSW,247,0.0,0.0,82,0.00,,,0.00,WUHU21623XXSP,2013-07-24 11:36:00,
2013-07-24 07:41:00,53.8,48.3,30.01,WSW,247,0.0,0.0,82,0.00,,,0.00,WUHU21623XXSP,2013-07-24 11:41:00,
2013-07-24 07:46:00,53.8,48.4,30.01,WSW,247,0.0,0.0,82,0.00,,,0.00,WUHU21623XXSP,2013-07-24 11:46:00,
2013-07-24 07:51:00,53.8,48.4,30.01,WSW,247,0.0,0.0,82,0.00,,,0.00,WUHU21623XXSP,2013-07-24 11:51:00,
2013-07-24 07:56:00,53.8,48.4,30.02,WSW,247,0.0,0.0,82,0.00,,,0.00,WUHU21623XXSP,2013-07-24 11:56:00,
2013-07-24 08:01:00,53.8,48.4,30.02,WSW,247,0.0,0.0,82,0.00,,,0.00,WUHU21623XXSP,2013-07-24 12:01:00,
2013-07-24 08:06:00,53.8,48.4,30.02,WSW,247,0.0,0.0,82,0.00,,,0.00,WUHU21623XXSP,2013-07-24 12:06:00,
2013-07-24 08:11:00,53.8,48.4,30.02,WSW,247,0.0,0.0,82,0.00,,,0.00,WUHU21623XXSP,2013-07-24 12:11:00,
2013-07-24 08:15:00,53.8,48.4,30.01,North,0,0.0,0.0,82,0.00,,,0.00,WUHU21623XXSP,2013-07-24 12:15:00,
2013-07-24 08:16:00,53.8,48.4,30.01,WSW,247,0.0,0.0,82,0.00,,,0.00,WUHU21623XXSP,2013-07-24 12:16:00,
2013-07-24 08:21:00,53.8,48.4,30.01,North,0,0.0,0.0,82,0.00,,,0.00,WUHU21623XXSP,2013-07-24 12:21:00,
2013-07-24 08:37:00,55.2,50.1,30.02,North,0,0.0,0.0,83,0.00,,,0.00,WUHU21623XXSP,2013-07-24 12:37:00,
2013-07-24 08:42:00,55.2,50.1,30.02,WNW,292,0.0,0.0,83,0.00,,,0.00,WUHU21623XXSP,2013-07-24 12:42:00,
2013-07-24 08:47:00,55.2,50.1,30.02,WNW,292,0.0,0.0,83,0.00,,,0.00,WUHU21623XXSP,2013-07-24 12:47:00,
2013-07-24 08:52:00,55.2,50.1,30.02,WNW,292,0.0,0.0,83,0.00,,,0.00,WUHU21623XXSP,2013-07-24 12:52:00,
2013-07-24 08:57:00,55.2,50.1,30.02,WNW,292,0.0,0.0,83,0.00,,,0.00,WUHU21623XXSP,2013-07-24 12:57:00,
2013-07-24 09:02:00,55.2,49.7,30.02,WNW,292,0.0,0.0,82,0.00,,,0.00,WUHU21623XXSP,2013-07-24 13:02:00,
2013-07-24 09:07:00,55.2,49.7,30.02,WNW,292,0.0,0.0,82,0.00,,,0.00,WUHU21623XXSP,2013-07-24 13:07:00,
2013-07-24 09:12:00,56.8,51.4,30.02,WNW,292,0.0,0.0,82,0.00,,,0.00,WUHU21623XXSP,2013-07-24 13:12:00,
2013-07-24 09:17:00,56.8,51.4,30.02,WNW,292,0.0,0.0,82,0.00,,,0.00,WUHU21623XXSP,2013-07-24 13:17:00,
2013-07-24 09:22:00,56.8,51.4,30.02,WNW,292,0.0,0.0,82,0.00,,,0.00,WUHU21623XXSP,2013-07-24 13:22:00,
2013-07-24 09:23:00,56.8,51.4,30.02,North,0,0.0,0.0,82,0.00,,,0.00,WUHU21623XXSP,2013-07-24 13:23:00,
2013-07-24 09:27:00,56.8,51.4,30.02,WNW,292,0.0,0.0,82,0.00,,,0.00,WUHU21623XXSP,2013-07-24 13:27:00,
2013-07-24 09:32:00,56.8,51.4,30.02,North,0,0.0,0.0,82,0.00,,,0.00,WUHU21623XXSP,2013-07-24 13:32:00,
2013-07-24 12:13:00,61.8,52.1,30.05,NW,315,0.0,0.0,70,0.00,,,0.00,WUHU21623XXSP,2013-07-24 16:13:00,
2013-07-24 12:18:00,61.6,51.9,30.05,NW,315,0.0,0.0,70,0.00,,,0.00,WUHU21623XXSP,2013-07-24 16:18:00,
2013-07-24 12:23:00,61.4,51.6,30.05,NW,315,0.0,0.0,70,0.00,,,0.00,WUHU21623XXSP,2013-07-24 16:23:00,
2013-07-24 12:28:00,61.1,51.4,30.05,NW,315,0.0,0.0,70,0.00,,,0.00,WUHU21623XXSP,2013-07-24 16:28:00,
2013-07-24 12:33:00,60.9,51.2,30.05,NW,315,0.0,0.0,70,0.00,,,0.00,WUHU21623XXSP,2013-07-24 16:33:00,
2013-07-24 12:34:00,60.9,51.2,30.05,North,0,0.0,0.0,70,0.00,,,0.00,WUHU21623XXSP,2013-07-24 16:34:00,
2013-07-24 12:38:00,60.9,51.2,30.05,NW,315,0.0,0.0,70,0.00,,,0.00,WUHU21623XXSP,2013-07-24 16:38:00,
2013-07-24 12:43:00,60.9,51.2,30.05,North,0,0.0,0.0,70,0.00,,,0.00,WUHU21623XXSP,2013-07-24 16:43:00,
2013-07-24 12:51:00,61.8,51.3,30.05,North,0,0.0,0.0,68,0.00,,,0.00,WUHU21623XXSP,2013-07-24 16:51:00,
2013-07-24 12:56:00,61.7,50.7,30.05,SSE,157,0.0,0.0,67,0.00,,,0.00,WUHU21623XXSP,2013-07-24 16:56:00,
2013-07-24 13:01:00,61.5,50.6,30.05,SSE,157,0.0,0.0,67,0.00,,,0.00,WUHU21623XXSP,2013-07-24 17:01:00,
2013-07-24 13:07:00,61.3,50.4,30.05,SSE,157,0.0,0.0,67,0.00,,,0.00,WUHU21623XXSP,2013-07-24 17:07:00,
2013-07-24 13:08:00,61.3,50.4,30.05,North,0,0.0,0.0,67,0.00,,,0.00,WUHU21623XXSP,2013-07-24 17:08:00,
2013-07-24 13:12:00,61.3,50.4,30.05,SSE,157,0.0,0.0,67,0.00,,,0.00,WUHU21623XXSP,2013-07-24 17:12:00,
2013-07-24 13:17:00,61.3,50.4,30.05,North,0,0.0,0.0,67,0.00,,,0.00,WUHU21623XXSP,2013-07-24 17:17:00,
2013-07-24 14:31:00,62.9,50.7,30.03,North,0,0.0,0.0,64,0.00,,,0.00,WUHU21623XXSP,2013-07-24 18:31:00,
2013-07-24 14:37:00,63.0,50.7,30.03,North,0,0.0,0.0,64,0.00,,,0.00,WUHU21623XXSP,2013-07-24 18:37:00,
2013-07-24 14:42:00,63.1,50.8,30.03,ENE,67,0.0,0.0,64,0.00,,,0.00,WUHU21623XXSP,2013-07-24 18:42:00,
2013-07-24 14:47:00,63.6,51.3,30.03,ENE,67,0.0,0.0,64,0.00,,,0.00,WUHU21623XXSP,2013-07-24 18:47:00,
2013-07-24 14:52:00,63.9,51.7,30.03,West,270,0.0,0.0,64,0.00,,,0.00,WUHU21623XXSP,2013-07-24 18:52:00,
2013-07-24 14:57:00,64.1,51.8,30.03,West,270,0.0,0.0,64,0.00,,,0.00,WUHU21623XXSP,2013-07-24 18:57:00,
2013-07-24 15:02:00,64.2,51.9,30.03,West,270,0.0,0.0,64,0.00,,,0.00,WUHU21623XXSP,2013-07-24 19:02:00,
2013-07-24 15:07:00,64.5,52.2,30.03,West,270,0.0,0.0,64,0.00,,,0.00,WUHU21623XXSP,2013-07-24 19:07:00,
2013-07-24 15:12:00,64.6,52.3,30.03,West,270,0.0,0.0,64,0.00,,,0.00,WUHU21623XXSP,2013-07-24 19:12:00,
2013-07-24 15:17:00,64.8,51.7,30.03,SSE,157,0.0,0.0,62,0.00,,,0.00,WUHU21623XXSP,2013-07-24 19:17:00,
2013-07-24 15:22:00,65.0,51.8,30.03,SSE,157,0.0,0.0,62,0.00,,,0.00,WUHU21623XXSP,2013-07-24 19:22:00,
2013-07-24 15:27:00,65.2,52.0,30.04,SSE,157,0.0,0.0,62,0.00,,,0.00,WUHU21623XXSP,2013-07-24 19:27:00,
2013-07-24 15:32:00,65.4,52.2,30.03,SSE,157,0.0,0.0,62,0.00,,,0.00,WUHU21623XXSP,2013-07-24 19:32:00,
2013-07-24 15:34:00,65.5,52.3,30.03,North,0,0.0,0.0,62,0.00,,,0.00,WUHU21623XXSP,2013-07-24 19:34:00,
2013-07-24 15:37:00,65.5,52.3,30.03,SSE,157,0.0,0.0,62,0.00,,,0.00,WUHU21623XXSP,2013-07-24 19:37:00,
2013-07-24 15:42:00,65.5,52.3,30.03,North,0,0.0,0.0,62,0.00,,,0.00,WUHU21623XXSP,2013-07-24 19:42:00,
2013-07-24 15:47:00,66.1,53.4,30.03,North,0,0.0,0.0,63,0.00,,,0.00,WUHU21623XXSP,2013-07-24 19:47:00,
2013-07-24 15:52:00,66.4,53.6,30.03,WSW,247,0.0,0.0,63,0.00,,,0.00,WUHU21623XXSP,2013-07-24 19:52:00,
2013-07-24 15:57:00,66.6,53.4,30.03,SW,225,0.0,0.0,62,0.00,,,0.00,WUHU21623XXSP,2013-07-24 19:57:00,
2013-07-24 16:02:00,66.9,53.6,30.03,SW,225,0.0,0.0,62,0.00,,,0.00,WUHU21623XXSP,2013-07-24 20:02:00,
2013-07-24 16:07:00,67.2,53.9,30.03,West,270,0.0,0.0,62,0.00,,,0.00,WUHU21623XXSP,2013-07-24 20:07:00,
2013-07-24 16:12:00,67.5,54.2,30.03,ENE,67,0.0,0.0,62,0.00,,,0.00,WUHU21623XXSP,2013-07-24 20:12:00,
2013-07-24 16:17:00,67.9,54.2,30.03,SE,135,0.0,0.0,61,0.00,,,0.00,WUHU21623XXSP,2013-07-24 20:17:00,
2013-07-24 16:22:00,68.2,54.4,30.03,SE,135,0.0,0.0,61,0.00,,,0.00,WUHU21623XXSP,2013-07-24 20:22:00,
2013-07-24 16:27:00,68.5,54.7,30.03,SW,225,0.0,0.0,61,0.00,,,0.00,WUHU21623XXSP,2013-07-24 20:27:00,
2013-07-24 16:32:00,68.8,55.0,30.03,SE,135,0.0,0.0,61,0.00,,,0.00,WUHU21623XXSP,2013-07-24 20:32:00,
2013-07-24 16:37:00,69.1,55.3,30.03,SE,135,0.0,0.0,61,0.00,,,0.00,WUHU21623XXSP,2013-07-24 20:37:00,
2013-07-24 16:42:00,69.4,55.1,30.03,SSE,157,0.0,0.0,60,0.00,,,0.00,WUHU21623XXSP,2013-07-24 20:42:00,
2013-07-24 16:47:00,69.7,55.8,30.03,SW,225,0.0,0.0,61,0.00,,,0.00,WUHU21623XXSP,2013-07-24 20:47:00,
2013-07-24 16:52:00,70.0,56.1,30.03,SW,225,0.0,0.0,61,0.00,,,0.00,WUHU21623XXSP,2013-07-24 20:52:00,
2013-07-24 16:57:00,70.6,56.6,30.03,NNW,337,0.0,0.0,61,0.00,,,0.00,WUHU21623XXSP,2013-07-24 20:57:00,
2013-07-24 17:02:00,70.7,56.6,30.03,SSE,157,0.0,0.0,61,0.00,,,0.00,WUHU21623XXSP,2013-07-24 21:02:00,
2013-07-24 17:07:00,70.9,56.4,30.03,SSW,202,0.0,0.0,60,0.00,,,0.00,WUHU21623XXSP,2013-07-24 21:07:00,
2013-07-24 17:12:00,70.9,56.8,30.03,WNW,292,0.0,0.0,61,0.00,,,0.00,WUHU21623XXSP,2013-07-24 21:12:00,
2013-07-24 17:17:00,70.9,56.4,30.03,WNW,292,0.0,0.0,60,0.00,,,0.00,WUHU21623XXSP,2013-07-24 21:17:00,
2013-07-24 17:22:00,70.9,56.4,30.03,WNW,292,0.0,0.0,60,0.00,,,0.00,WUHU21623XXSP,2013-07-24 21:22:00,
2013-07-24 17:27:00,70.7,56.2,30.03,South,180,0.0,0.0,60,0.00,,,0.00,WUHU21623XXSP,2013-07-24 21:27:00,
2013-07-24 17:32:00,70.7,56.2,30.03,South,180,0.0,0.0,60,0.00,,,0.00,WUHU21623XXSP,2013-07-24 21:32:00,
2013-07-24 17:37:00,70.7,56.2,30.02,NE,45,0.0,0.0,60,0.00,,,0.00,WUHU21623XXSP,2013-07-24 21:37:00,
2013-07-24 17:42:00,70.5,56.0,30.02,SSE,157,0.0,0.0,60,0.00,,,0.00,WUHU21623XXSP,2013-07-24 21:42:00,
2013-07-24 17:47:00,70.5,56.0,30.02,ESE,112,0.0,0.0,60,0.00,,,0.00,WUHU21623XXSP,2013-07-24 21:47:00,
2013-07-24 17:52:00,70.3,55.9,30.02,SE,135,0.0,0.0,60,0.00,,,0.00,WUHU21623XXSP,2013-07-24 21:52:00,
2013-07-24 17:57:00,70.3,55.9,30.02,SE,135,0.0,0.0,60,0.00,,,0.00,WUHU21623XXSP,2013-07-24 21:57:00,
2013-07-24 18:02:00,70.3,55.9,30.02,SE,135,0.0,0.0,60,0.00,,,0.00,WUHU21623XXSP,2013-07-24 22:02:00,
2013-07-24 18:07:00,70.3,55.9,30.02,SE,135,0.0,0.0,60,0.00,,,0.00,WUHU21623XXSP,2013-07-24 22:07:00,
2013-07-24 18:12:00,70.3,55.9,30.02,SE,135,0.0,0.0,60,0.00,,,0.00,WUHU21623XXSP,2013-07-24 22:12:00,
2013-07-24 18:17:00,70.3,55.9,30.02,SE,135,0.0,0.0,60,0.00,,,0.00,WUHU21623XXSP,2013-07-24 22:17:00,
2013-07-24 18:22:00,70.3,55.9,30.02,SW,225,0.0,0.0,60,0.00,,,0.00,WUHU21623XXSP,2013-07-24 22:22:00,
2013-07-24 18:27:00,70.3,55.9,30.02,SW,225,0.0,0.0,60,0.00,,,0.00,WUHU21623XXSP,2013-07-24 22:27:00,
2013-07-24 18:32:00,70.3,55.9,30.02,SSW,202,0.0,0.0,60,0.00,,,0.00,WUHU21623XXSP,2013-07-24 22:32:00,
2013-07-24 18:37:00,70.3,55.9,30.02,SSW,202,0.0,0.0,60,0.00,,,0.00,WUHU21623XXSP,2013-07-24 22:37:00,
2013-07-24 18:42:00,70.3,55.9,30.02,SSW,202,0.0,0.0,60,0.00,,,0.00,WUHU21623XXSP,2013-07-24 22:42:00,
2013-07-24 18:47:00,70.2,55.2,30.02,ENE,67,0.0,0.0,59,0.00,,,0.00,WUHU21623XXSP,2013-07-24 22:47:00,
2013-07-24 18:52:00,70.0,55.1,30.02,ENE,67,0.0,0.0,59,0.00,,,0.00,WUHU21623XXSP,2013-07-24 22:52:00,
2013-07-24 18:57:00,70.0,55.1,30.02,SE,135,0.0,0.0,59,0.00,,,0.00,WUHU21623XXSP,2013-07-24 22:57:00,
2013-07-24 19:02:00,70.0,55.6,30.03,SE,135,0.0,0.0,60,0.00,,,0.00,WUHU21623XXSP,2013-07-24 23:02:00,
2013-07-24 19:07:00,70.0,55.6,30.02,SE,135,0.0,0.0,60,0.00,,,0.00,WUHU21623XXSP,2013-07-24 23:07:00,
2013-07-24 19:12:00,69.4,55.0,30.02,SE,135,0.0,0.0,60,0.00,,,0.00,WUHU21623XXSP,2013-07-24 23:12:00,
2013-07-24 19:17:00,69.3,55.3,30.02,SE,135,0.0,0.0,61,0.00,,,0.00,WUHU21623XXSP,2013-07-24 23:17:00,
2013-07-24 19:22:00,69.3,55.3,30.02,SE,135,0.0,0.0,61,0.00,,,0.00,WUHU21623XXSP,2013-07-24 23:22:00,
2013-07-24 19:27:00,69.3,55.3,30.03,SE,135,0.0,0.0,61,0.00,,,0.00,WUHU21623XXSP,2013-07-24 23:27:00,
2013-07-24 19:32:00,68.9,54.9,30.03,SE,135,0.0,0.0,61,0.00,,,0.00,WUHU21623XXSP,2013-07-24 23:32:00,
2013-07-24 19:37:00,68.9,54.9,30.03,SE,135,0.0,0.0,61,0.00,,,0.00,WUHU21623XXSP,2013-07-24 23:37:00,
2013-07-24 19:42:00,68.7,55.2,30.03,SE,135,0.0,0.0,62,0.00,,,0.00,WUHU21623XXSP,2013-07-24 23:42:00,
2013-07-24 19:47:00,68.7,55.2,30.03,SE,135,0.0,0.0,62,0.00,,,0.00,WUHU21623XXSP,2013-07-24 23:47:00,
2013-07-24 19:52:00,68.7,55.2,30.03,SE,135,0.0,0.0,62,0.00,,,0.00,WUHU21623XXSP,2013-07-24 23:52:00,
2013-07-24 19:57:00,68.7,55.2,30.03,SE,135,0.0,0.0,62,0.00,,,0.00,WUHU21623XXSP,2013-07-24 23:57:00,
2013-07-24 20:02:00,68.7,55.2,30.04,SE,135,0.0,0.0,62,0.00,,,0.00,WUHU21623XXSP,2013-07-25 00:02:00,
2013-07-24 20:07:00,68.5,55.0,30.04,SE,135,0.0,0.0,62,0.00,,,0.00,WUHU21623XXSP,2013-07-25 00:07:00,
2013-07-24 20:12:00,68.5,55.4,30.03,SE,135,0.0,0.0,63,0.00,,,0.00,WUHU21623XXSP,2013-07-25 00:12:00,
2013-07-24 20:17:00,68.5,55.4,30.03,SE,135,0.0,0.0,63,0.00,,,0.00,WUHU21623XXSP,2013-07-25 00:17:00,
2013-07-24 20:22:00,68.4,55.2,30.04,SE,135,0.0,0.0,63,0.00,,,0.00,WUHU21623XXSP,2013-07-25 00:22:00,
2013-07-24 20:27:00,68.4,55.2,30.04,SE,135,0.0,0.0,63,0.00,,,0.00,WUHU21623XXSP,2013-07-25 00:27:00,
2013-07-24 20:32:00,68.4,55.7,30.04,SE,135,0.0,0.0,64,0.00,,,0.00,WUHU21623XXSP,2013-07-25 00:32:00,
2013-07-24 20:37:00,67.8,55.1,30.04,SE,135,0.0,0.0,64,0.00,,,0.00,WUHU21623XXSP,2013-07-25 00:37:00,
2013-07-24 20:42:00,67.8,55.1,30.04,SE,135,0.0,0.0,64,0.00,,,0.00,WUHU21623XXSP,2013-07-25 00:42:00,
2013-07-24 20:47:00,67.8,55.1,30.04,SE,135,0.0,0.0,64,0.00,,,0.00,WUHU21623XXSP,2013-07-25 00:47:00,
2013-07-24 20:52:00,67.8,55.1,30.04,SE,135,0.0,0.0,64,0.00,,,0.00,WUHU21623XXSP,2013-07-25 00:52:00,
2013-07-24 20:55:00,67.8,55.1,30.04,North,0,0.0,0.0,64,0.00,,,0.00,WUHU21623XXSP,2013-07-25 00:55:00,
2013-07-24 20:57:00,67.8,55.1,30.04,SE,135,0.0,0.0,64,0.00,,,0.00,WUHU21623XXSP,2013-07-25 00:57:00,
2013-07-24 21:02:00,67.8,55.1,30.04,North,0,0.0,0.0,64,0.00,,,0.00,WUHU21623XXSP,2013-07-25 01:02:00,
2013-07-24 22:10:00,64.9,54.1,30.05,SE,135,0.0,0.0,68,0.00,,,0.00,WUHU21623XXSP,2013-07-25 02:10:00,
2013-07-24 22:15:00,64.9,54.1,30.05,SE,135,0.0,0.0,68,0.00,,,0.00,WUHU21623XXSP,2013-07-25 02:15:00,
2013-07-24 22:20:00,64.6,53.8,30.05,SE,135,0.0,0.0,68,0.00,,,0.00,WUHU21623XXSP,2013-07-25 02:20:00,
2013-07-24 22:25:00,64.6,53.8,30.05,SE,135,0.0,0.0,68,0.00,,,0.00,WUHU21623XXSP,2013-07-25 02:25:00,
2013-07-24 22:30:00,64.6,53.8,30.05,SE,135,0.0,0.0,68,0.00,,,0.00,WUHU21623XXSP,2013-07-25 02:30:00,
2013-07-24 22:31:00,64.6,53.8,30.05,North,0,0.0,0.0,68,0.00,,,0.00,WUHU21623XXSP,2013-07-25 02:31:00,
2013-07-24 22:35:00,64.6,53.8,30.05,SE,135,0.0,0.0,68,0.00,,,0.00,WUHU21623XXSP,2013-07-25 02:35:00,
2013-07-24 22:40:00,64.6,53.8,30.05,North,0,0.0,0.0,68,0.00,,,0.00,WUHU21623XXSP,2013-07-25 02:40:00,
2013-07-24 23:14:00,62.8,53.2,30.06,North,0,0.0,0.0,71,0.00,,,0.00,WUHU21623XXSP,2013-07-25 03:14:00,
2013-07-24 23:19:00,62.8,53.2,30.06,SE,135,0.0,0.0,71,0.00,,,0.00,WUHU21623XXSP,2013-07-25 03:19:00,
2013-07-24 23:24:00,62.8,53.2,30.06,SE,135,0.0,0.0,71,0.00,,,0.00,WUHU21623XXSP,2013-07-25 03:24:00,
2013-07-24 23:29:00,62.8,53.2,30.06,SE,135,0.0,0.0,71,0.00,,,0.00,WUHU21623XXSP,2013-07-25 03:29:00,
2013-07-24 23:34:00,61.7,52.3,30.06,SE,135,0.0,0.0,71,0.00,,,0.00,WUHU21623XXSP,2013-07-25 03:34:00,
2013-07-24 23:39:00,61.7,52.3,30.06,SE,135,0.0,0.0,71,0.00,,,0.00,WUHU21623XXSP,2013-07-25 03:39:00,
2013-07-24 23:44:00,61.7,52.3,30.06,SE,135,0.0,0.0,71,0.00,,,0.00,WUHU21623XXSP,2013-07-25 03:44:00,
2013-07-24 23:50:00,61.2,51.8,30.06,SE,135,0.0,0.0,71,0.00,,,0.00,WUHU21623XXSP,2013-07-25 03:50:00,
2013-07-24 23:55:00,61.0,52.0,30.06,SE,135,0.0,0.0,72,0.00,,,0.00,WUHU21623XXSP,2013-07-25 03:55:00,